Home   Weather   Sumqayit   Past weeks

Flag for Azerbaijan Past Weather in Sumqayit, Azerbaijan — Yesterday and Last 2 Weeks

Now
57 °F

Sprinkles. Passing clouds.


Feels Like: 57 °F
Forecast: 62 / 71 °F
Wind: 5 mph from West

Location: Baku / Bine Airport

Current Time: Oct 1, 2016 at 4:00:19 AM

Latest Report: Oct 1, 2016 at 3:30 AM


Visibility: N/A

Pressure: 30.24 "Hg

Humidity: 94%

Dew Point: 55 °F

Location of SumqayitLocation

Past Weather in Sumqayit — Graph

°F

Sumqayit Temperature Yesterday

Maximum temperature yesterday: 66 °F (at 3:30 PM)
Minimum temperature yesterday: 54 °F (at 11:00 PM)
Average temperature yesterday: 59 °F

High & Low Weather Summary for the Past Weeks

 TemperatureHumidityPressure
High82 °F (Sep 20, 11:30 AM)100% (Sep 17, 3:30 AM)30.24 "Hg (Sep 17, 3:30 AM)
Low54 °F (Sep 30, 11:00 PM)50% (Sep 25, 2:30 PM)29.62 "Hg (Sep 21, 3:30 PM)
Average68 °F79%29.95 "Hg
* Reported Sep 16 3:00 AM — Oct 1 3:00 AM, Sumqayit, Weather by CustomWeather, © 2016

Note: Actual official high and low records may vary slightly from our data, if they occured in-between our weather recording intervals... More about our weather records

Advertising

Sumqayit Weather History for the Previous 24 Hours

Scroll right to see more
 ConditionsComfort  
Time TempWeatherWind HumidityBarometerVisibility
3:00 AM
Sat, Oct 1
55 °FClear.5 mph94%30.24 "Hg10 mi
2:30 AM55 °FClear.2 mph94%30.24 "Hg10 mi
2:00 AM55 °FPassing clouds.3 mph94%30.24 "HgN/A
1:30 AM55 °FPassing clouds.3 mph94%30.21 "HgN/A
1:00 AM55 °FClear.No wind94%30.21 "Hg10 mi
12:30 AM55 °FClear.No wind94%30.21 "Hg10 mi
12:00 AM54 °FClear.6 mph94%30.21 "Hg10 mi
11:30 PM
Fri, Sep 30
55 °FClear.7 mph94%30.21 "Hg10 mi
11:00 PM54 °FClear.6 mph94%30.21 "Hg10 mi
10:30 PM55 °FClear.6 mph94%30.18 "Hg10 mi
10:00 PM55 °FClear.5 mph94%30.18 "Hg10 mi
9:30 PM57 °FClear.5 mph88%30.18 "Hg10 mi
9:00 PM57 °FClear.3 mph94%30.18 "Hg10 mi
8:30 PM59 °FClear.5 mph82%30.18 "Hg10 mi
8:00 PM61 °FClear.5 mph77%30.15 "Hg10 mi
7:30 PM59 °FClear.2 mph88%30.15 "Hg10 mi
7:00 PM61 °FClear.No wind83%30.12 "Hg10 mi
6:30 PM63 °FPassing clouds.2 mph77%30.12 "HgN/A
6:00 PM64 °FBroken clouds.5 mph68%30.09 "HgN/A
5:30 PM64 °FBroken clouds.8 mph73%30.09 "HgN/A
5:00 PM64 °FBroken clouds.6 mph68%30.09 "HgN/A
4:30 PM64 °FBroken clouds.8 mph68%30.09 "HgN/A
4:00 PM64 °FBroken clouds.7 mph68%30.07 "HgN/A
3:30 PM66 °FBroken clouds.8 mph68%30.07 "HgN/A
3:00 PM64 °FBroken clouds.7 mph73%30.07 "HgN/A
2:30 PM63 °FBroken clouds.8 mph73%30.07 "HgN/A
2:00 PM61 °FPartly sunny.8 mph83%30.09 "HgN/A
1:30 PM63 °FPartly sunny.7 mph77%30.09 "HgN/A
1:00 PM63 °FPartly sunny.6 mph73%30.09 "HgN/A
12:30 PM63 °FBroken clouds.6 mph73%30.09 "HgN/A
12:00 PM63 °FBroken clouds.6 mph68%30.09 "HgN/A
11:30 AM63 °FBroken clouds.7 mph68%30.09 "HgN/A
11:00 AM61 °FBroken clouds.6 mph72%30.09 "HgN/A
10:30 AM61 °FBroken clouds.5 mph77%30.09 "HgN/A
10:00 AM61 °FSunny.1 mph77%30.09 "Hg10 mi
9:30 AM59 °FSunny.5 mph82%30.07 "Hg10 mi
9:00 AM59 °FSunny.6 mph82%30.07 "Hg10 mi
8:30 AM57 °FSunny.5 mph88%30.07 "Hg10 mi
8:00 AM55 °FSunny.No wind94%30.07 "Hg10 mi
7:30 AM55 °FLight rain. Overcast.No wind94%30.07 "HgN/A
7:00 AM55 °FLight rain. Overcast.5 mph94%30.09 "HgN/A
6:30 AM55 °FSprinkles. Mostly cloudy.6 mph94%30.09 "HgN/A
6:00 AM55 °FSprinkles. Mostly cloudy.8 mph94%30.09 "HgN/A
5:30 AM55 °FSprinkles. Mostly cloudy.9 mph94%30.09 "HgN/A
5:00 AM57 °FSprinkles. Mostly cloudy.8 mph94%30.09 "Hg4 mi
4:30 AM57 °FSprinkles. Mostly cloudy.7 mph94%30.09 "Hg4 mi
4:00 AM57 °FSprinkles. Mostly cloudy.7 mph94%30.09 "HgN/A
Weather by CustomWeather, © 2016

See weather overviewHow to use our weather pages